Location: *
(50.0228°S, 177.2688°W)
Time: 13:44:49
(UTC+00:00)

CZ-4 R/B - Pass Details

Date: 07 April 2020
Orbit: 532 x 598 km, 97.8° (Epoch: 23 May)

Event Time Altitude Azimuth Distance (km) Brightness Sun altitude
Rises 07:53:45 0° 173° (S) 2,850 5.1 -24.8°
Reaches altitude 10° 07:56:03 10° 180° (S) 1,931 4.3 -25.1°
Maximum altitude 07:59:56 39° 248° (WSW) 882 2.8 -25.7°
Drops below altitude 10° 08:03:43 10° 317° (NW) 1,869 4.2 -26.3°
Sets 08:05:55 0° 324° (NW) 2,745 5.0 -26.6°
